Showing default

IRIDIUM 134, 43075

Orbit data source: Space-Track

IRIDIUM 134, 43075 is a payload satellite owned by Iridium (US) in LEO that was launched on Sat, 23 Dec 2017 UTC via an FALCON 9 launch vehicle from the Air Force Western Test Range (AFWTR). Payload-class satellites include a variety of spacecraft equipped with specific instruments for various scientific and technological missions. These include communications satellites like Starlink; space stations such as the ISS; scientific satellites like the Hubble; Earth observation satellites from companies like Planet Labs, Umbra, and HawkEye 360; GPS; miniature CubeSats for education and research; and military/defense satellites.

Loading next visibility...
Identifier
43075, 2017-083F
Orbit
LEO
Country
Flag of USUS
Related business
Manufacturer
OATK SSG Gilbert
Mission
Operational Commercial Communications
Bus & Motor
ELITEBUS, Unknown motor
Mass
860 kg wet, 700 kg dry
Launch date (UTC)
2017-12-23 (8 years ago)
Launch vehicle
FALCON 9
Launch site
Air Force Western Test Range (AFWTR)
Object type
Payload
Rocket body
Debris
Shape & HBR
Trap Box + 2 Pan, 4.8 m
Radar Cross Section
10.154 m², Large (>1 m²)

Expand to show TLE details & history
Last TLE update: 7 hours ago

TLE from 7 hours ago
0 IRIDIUM 134
1 43075U 17083F   25312.72744243  .00000264  00000-0  87038-4 0  9996
2 43075  86.3983  54.2055 0001820  95.3866 264.7537 14.34219390412509
Epoch: 2025-11-08T17:27Z
TLE epoch observation values (Epoch: 2025-11-08T17:27:31.025Z)
Latitude
-0.0001°
Longitude
104.17332°
Altitude
780.832 km
Speed
7.463 km/s
True Right ascension
03h 36m 49s
True Declination
0° 00' 00"
Sunlit
Object was in full shadow at epoch
Visualization orbit readout
Latitude
Unknown
Longitude
Unknown
Altitude
Unknown
Speed
Unknown
Apparent Right ascension
Unknown
Apparent Declination
Unknown
Sunlit
N/A
Visualization observer readout
Local Sidereal Time
20:26:09
Azimuth
Unknown
Elevation
Unknown
Doppler factor
Unknown
Orbital elements
Apogee altitude
775.928 km
Perigee altitude
773.324 km
Semi-major axis
7,152.763 km
Eccentricity
0.00018
Inclination
86.3983°
RAAN
54.2055°
Arg. of periapsis
95.3866°
True anomaly
264.73293°
Mean anomaly
264.7537°
Eccentric anomaly
264.74332°
Mean motion
3.58783 °/min
Orbital period
100.34 mins
BSTAR
0.000087038
Loading maneuver chart data...
Computing Atmospheric mass density...
Loading historical data...
Loading historical data...
Loading historical data...
Loading historical data...
Loading historical data...
Loading historical data...
Loading historical data...

Documentation

Showing up to 5 results
|